[ ตารางข้อมูล ] [ Min-Max ] [ วันนี้2 ] [ วันนี้4 ] [ เทียบ-A 3วัน ] [ เทียบ-B 4วัน ]   

วันนี้4   [ ◀ ช่วงเก่ากว่า ] [ ช่วงที่ 34 ] [ ช่วงใหม่กว่า ▶ ] [ ล่าสุด ]    [ 3 ชั่วโมง ] [ 6 ชั่วโมง ] [ 12 ชั่วโมง ] [ 24 ชั่วโมง ]   วันนี้4

อุณภูมิในตู้ Knockdown4529  ราย 24 ชั่วโมง  ที่วัดได้ ในช่วงวันเวลา 30/07/2026 (10:30) ถึง 31/07/2026 (10:30) 
ความชื้นในตู้ Knockdown4529  ราย 24 ชั่วโมง  ที่วัดได้ ในช่วงวันเวลา 30/07/2026 (10:30) ถึง 31/07/2026 (10:30) 
การใช้ไฟฟ้าในตู้ Knockdown4529  ราย 24 ชั่วโมง  ที่วัดได้ ในช่วงวันเวลา 30/07/2026 (10:30) ถึง 31/07/2026 (10:30) 

  DS18B20SHTC3PZEM-004TWiFi 
IDDate d/m/Y & Timedata1
สูง
data2
ต่ำ
data3
นอก
temp
pcb
hum
pcb
VoltAmpWattrssiTime
 8241  31/07/2026 10:29:02  30.4  28.6  31.5  31.1  62.3  232.3  0.04  4.6  -78  10:29 
 8240  31/07/2026 10:24:19  30.2  28.6  31.9  31.2  62.6  234.1  0.04  4.6  -81  10:24 
 8239  31/07/2026 10:19:35  30.1  28.5  31.8  30.8  62.6  234.9  0.04  4.6  -81  10:19 
 8238  31/07/2026 10:14:52  30.1  28.4  31.4  31.0  62.7  234.6  0.04  4.6  -80  10:14 
 8237  31/07/2026 10:10:08  29.9  28.3  31.4  30.7  62.9  231.3  0.04  4.6  -78  10:10 
 8236  31/07/2026 10:05:25  29.9  28.2  31.3  30.6  62.9  232.4  0.04  4.6  -82  10:05 
 8235  31/07/2026 10:00:41  29.8  28.2  31.5  30.6  63.0  233.6  0.04  4.6  -80  10:00 
 8234  31/07/2026 09:55:57  29.6  28.1  31.3  30.4  63.1  233.7  0.04  4.6  -79  09:55 
 8233  31/07/2026 09:51:14  29.5  28.1  30.9  30.4  63.4  233.6  0.04  4.6  -79  09:51 
 8232  31/07/2026 09:46:30  29.4  28.0  30.6  30.4  63.5  233.0  0.04  4.6  -78  09:46 
 8231  31/07/2026 09:41:47  29.2  27.9  30.5  30.2  63.6  230.9  0.04  4.6  -82  09:41 
 8230  31/07/2026 09:37:04  29.2  27.9  30.2  30.1  63.6  233.0  0.04  4.6  -81  09:37 
 8229  31/07/2026 09:32:21  29.1  27.8  30.3  30.1  63.8  232.7  0.04  4.6  -82  09:32 
 8228  31/07/2026 09:27:37  28.9  27.7  30.2  29.7  63.8  232.7  0.04  4.6  -82  09:27 
 8227  31/07/2026 09:22:54  28.8  27.7  30.1  29.8  63.9  231.1  0.04  4.6  -79  09:22 
 8226  31/07/2026 09:18:10  28.7  27.6  30.0  29.8  64.0  233.8  0.04  4.6  -82  09:18 
 8225  31/07/2026 09:13:25  28.6  27.6  29.8  29.6  64.2  233.8  0.04  4.6  -82  09:13 
 8224  31/07/2026 09:08:42  28.6  27.5  29.5  29.6  64.4  231.9  0.04  4.6  -81  09:08 
 8223  31/07/2026 09:03:59  28.5  27.4  29.3  29.4  64.3  233.2  0.04  4.6  -80  09:03 
 8222  31/07/2026 08:59:15  28.5  27.4  29.0  29.5  64.3  231.6  0.04  4.6  -86  08:59 
 8221  31/07/2026 08:54:30  28.4  27.3  28.8  29.4  64.4  231.4  0.04  4.6  -80  08:54 
 8220  31/07/2026 08:49:45  28.3  27.2  28.9  29.3  64.5  230.8  0.04  4.6  -83  08:49 
 8219  31/07/2026 08:45:02  28.2  27.2  28.9  29.2  64.7  232.3  0.04  4.6  -80  08:45 
 8218  31/07/2026 08:40:19  28.1  27.2  29.0  29.1  64.8  232.6  0.04  4.6  -82  08:40 

Data every 5 minute.


ใช้เวลาประมวลผล 0.02913 วินาที